This demonstration page uses our WeatherBlox Daily Observations layout. Learn more.

Left ArrowRight Arrow

Hourly Observations for December 4, 2022

Temp ( °F °C ) Dew Point ( °F °C ) Humidity (%) Winds ( mph kmh ) Pressure ( in mb ) Visibility ( mi km ) Precip ( " mm )
12:52 am 00:52 Mostly Cloudy 21 -6.1 12 -11.1 68 68 SSE 9 15 30.30 1026 10 16 0.00 0.00
1:52 am 01:52 Clear 22 -5.6 12 -11.1 65 65 ESE 8 13 30.30 1026 10 16 0.00 0.00
2:52 am 02:52 Partly Cloudy 21 -6.1 12 -11.1 68 68 SSE 7 11 30.30 1026 10 16 0.00 0.00
3:52 am 03:52 Mostly Clear 19 -7.2 11 -11.7 70 70 SSE 10 17 30.29 1026 10 16 0.00 0.00
4:52 am 04:52 Mostly Clear 20 -6.7 12 -11.1 71 71 SSE 9 15 30.27 1025 10 16 0.00 0.00
5:52 am 05:52 Mostly Clear 18 -7.8 12 -11.1 77 77 SSE 10 17 30.26 1025 10 16 0.00 0.00
6:52 am 06:52 Mostly Clear 19 -7.2 12 -11.1 74 74 SE 8 13 30.26 1025 10 16 0.00 0.00
7:52 am 07:52 Mostly Sunny 17 -8.3 12 -11.1 80 80 SSE 9 15 30.26 1025 10 16 0.00 0.00
8:52 am 08:52 Mostly Sunny 23 -5 15 -9.4 71 71 SE 6 9 30.24 1024 10 16 0.00 0.00
9:52 am 09:52 Mostly Sunny 29 -1.7 15 -9.4 56 56 S 7 11 30.22 1023 10 16 0.00 0.00
10:52 am 10:52 Partly Cloudy 32 0 15 -9.4 49 49 SW 6 9 30.21 1023 10 16 0.00 0.00
11:52 am 11:52 Mostly Cloudy 36 2.2 16 -8.9 44 44 SSE 6 9 30.16 1022 10 16 0.00 0.00
12:52 pm 12:52 Mostly Cloudy 40 4.4 16 -8.9 37 37 S 6 9 30.12 1020 10 16 0.00 0.00
1:52 pm 13:52 Mostly Cloudy 43 6.1 16 -8.9 33 33 S 6 9 30.09 1019 10 16 0.00 0.00
2:52 pm 14:52 Mostly Cloudy 45 7.2 17 -8.3 32 32 S 6 9 30.06 1018 10 16 0.00 0.00
3:52 pm 15:52 Mostly Cloudy 45 7.2 17 -8.3 32 32 S 8 13 30.03 1017 10 16 0.00 0.00
4:52 pm 16:52 Mostly Cloudy 39 3.9 16 -8.9 39 39 S 8 13 30.01 1016 10 16 0.00 0.00
5:52 pm 17:52 Partly Cloudy 33 0.6 16 -8.9 49 49 S 9 15 30.00 1016 10 16 0.00 0.00
6:52 pm 18:52 Clear 38 3.3 17 -8.3 42 42 S 12 19 29.98 1015 10 16 0.00 0.00
7:52 pm 19:52 Clear 38 3.3 17 -8.3 42 42 S 12 19 29.96 1015 10 16 0.00 0.00
8:52 pm 20:52 Clear 29 -1.7 16 -8.9 58 58 SSE 9 15 29.96 1014 10 16 0.00 0.00
9:52 pm 21:52 Mostly Clear 29 -1.7 17 -8.3 61 61 SSE 12 19 29.93 1013 10 16 0.00 0.00
10:52 pm 22:52 Clear 27 -2.8 16 -8.9 63 63 SSE 10 17 29.91 1013 10 16 0.00 0.00
11:52 pm 23:52 Partly Cloudy 28 -2.2 17 -8.3 63 63 SSE 9 15 29.88 1012 10 16 0.00 0.00

Powered by AerisWeather